Time,TemperatureF,DewpointF,PressureIn,WindDirection,WindDirectionDegrees,WindSpeedMPH,WindSpeedGustMPH,Humidity,HourlyPrecipIn,Conditions,Clouds,dailyrainin,SoftwareType,DateUTC
2013-05-26 00:07:00,74.4,67.0,30.14,SE,131,3.0,8.0,78,0.00,,,0.00,weatherlink.com 1.10,2013-05-26 04:07:00,
2013-05-26 00:22:00,74.3,67.0,30.14,SE,145,1.0,8.0,78,0.00,,,0.00,weatherlink.com 1.10,2013-05-26 04:22:00,
2013-05-26 00:37:00,73.9,67.0,30.15,East,82,4.0,9.0,79,0.00,,,0.00,weatherlink.com 1.10,2013-05-26 04:37:00,
2013-05-26 00:52:00,73.7,67.0,30.14,ESE,105,2.0,9.0,79,0.00,,,0.00,weatherlink.com 1.10,2013-05-26 04:52:00,
2013-05-26 01:07:00,73.4,67.0,30.14,East,100,1.0,7.0,80,0.00,,,0.00,weatherlink.com 1.10,2013-05-26 05:07:00,
2013-05-26 01:22:00,73.2,67.0,30.14,NE,56,0.0,6.0,80,0.00,,,0.00,weatherlink.com 1.10,2013-05-26 05:22:00,
2013-05-26 01:37:00,73.0,67.0,30.14,ESE,112,2.0,6.0,80,0.00,,,0.00,weatherlink.com 1.10,2013-05-26 05:37:00,
2013-05-26 01:52:00,72.8,67.0,30.14,ESE,115,0.0,7.0,81,0.00,,,0.00,weatherlink.com 1.10,2013-05-26 05:52:00,
2013-05-26 02:07:00,72.4,67.0,30.13,ENE,77,4.0,5.0,82,0.00,,,0.00,weatherlink.com 1.10,2013-05-26 06:07:00,
2013-05-26 02:22:00,72.3,67.0,30.13,North,8,1.0,5.0,82,0.00,,,0.00,weatherlink.com 1.10,2013-05-26 06:22:00,
2013-05-26 02:38:00,71.9,67.0,30.12,NE,47,0.0,5.0,83,0.00,,,0.00,weatherlink.com 1.10,2013-05-26 06:38:00,
2013-05-26 02:53:00,71.4,66.0,30.12,ESE,106,2.0,5.0,84,0.00,,,0.00,weatherlink.com 1.10,2013-05-26 06:53:00,
2013-05-26 03:08:00,71.0,66.0,30.12,ENE,68,1.0,5.0,84,0.00,,,0.00,weatherlink.com 1.10,2013-05-26 07:08:00,
2013-05-26 03:23:00,70.7,66.0,30.12,WNW,299,1.0,5.0,85,0.00,,,0.00,weatherlink.com 1.10,2013-05-26 07:23:00,
2013-05-26 03:38:00,70.3,66.0,30.12,NE,41,1.0,3.0,85,0.00,,,0.00,weatherlink.com 1.10,2013-05-26 07:38:00,
2013-05-26 03:53:00,69.9,66.0,30.12,East,95,0.0,2.0,86,0.00,,,0.00,weatherlink.com 1.10,2013-05-26 07:53:00,
2013-05-26 04:08:00,69.5,66.0,30.12,WNW,302,0.0,0.0,87,0.00,,,0.00,weatherlink.com 1.10,2013-05-26 08:08:00,
2013-05-26 04:23:00,69.0,65.0,30.12,ESE,107,0.0,0.0,88,0.00,,,0.00,weatherlink.com 1.10,2013-05-26 08:23:00,
2013-05-26 04:38:00,68.4,65.0,30.12,ESE,115,0.0,0.0,88,0.00,,,0.00,weatherlink.com 1.10,2013-05-26 08:38:00,
2013-05-26 04:53:00,67.7,64.0,30.12,ESE,116,0.0,0.0,89,0.00,,,0.00,weatherlink.com 1.10,2013-05-26 08:53:00,
2013-05-26 05:08:00,67.3,64.0,30.13,ESE,115,0.0,0.0,90,0.00,,,0.00,weatherlink.com 1.10,2013-05-26 09:08:00,
2013-05-26 05:23:00,67.0,64.0,30.13,ESE,115,0.0,0.0,91,0.00,,,0.00,weatherlink.com 1.10,2013-05-26 09:23:00,
2013-05-26 05:38:00,66.9,64.0,30.12,ESE,104,0.0,0.0,91,0.00,,,0.00,weatherlink.com 1.10,2013-05-26 09:38:00,
2013-05-26 05:53:00,66.6,64.0,30.12,NNE,25,0.0,0.0,91,0.00,,,0.00,weatherlink.com 1.10,2013-05-26 09:53:00,
2013-05-26 06:08:00,66.6,64.0,30.12,ENE,68,0.0,0.0,91,0.00,,,0.00,weatherlink.com 1.10,2013-05-26 10:08:00,
2013-05-26 06:23:00,66.4,64.0,30.12,ENE,68,0.0,0.0,91,0.00,,,0.00,weatherlink.com 1.10,2013-05-26 10:23:00,
2013-05-26 06:38:00,66.2,64.0,30.12,ENE,58,0.0,0.0,91,0.00,,,0.00,weatherlink.com 1.10,2013-05-26 10:38:00,
2013-05-26 06:53:00,66.0,63.0,30.12,East,89,0.0,0.0,91,0.00,,,0.00,weatherlink.com 1.10,2013-05-26 10:53:00,
2013-05-26 07:08:00,66.7,64.0,30.13,East,91,0.0,0.0,90,0.00,,,0.00,weatherlink.com 1.10,2013-05-26 11:08:00,
2013-05-26 07:23:00,67.7,64.0,30.13,ESE,105,0.0,0.0,88,0.00,,,0.00,weatherlink.com 1.10,2013-05-26 11:23:00,
2013-05-26 07:38:00,69.2,65.0,30.13,East,100,0.0,0.0,85,0.00,,,0.00,weatherlink.com 1.10,2013-05-26 11:38:00,
2013-05-26 07:53:00,71.0,65.0,30.13,ENE,77,0.0,0.0,81,0.00,,,0.00,weatherlink.com 1.10,2013-05-26 11:53:00,
2013-05-26 08:08:00,72.7,65.0,30.14,ENE,63,0.0,0.0,77,0.00,,,0.00,weatherlink.com 1.10,2013-05-26 12:08:00,
2013-05-26 08:23:00,74.0,65.0,30.14,ENE,72,0.0,4.0,74,0.00,,,0.00,weatherlink.com 1.10,2013-05-26 12:23:00,
2013-05-26 08:38:00,74.6,65.0,30.15,NNE,29,1.0,5.0,72,0.00,,,0.00,weatherlink.com 1.10,2013-05-26 12:38:00,
2013-05-26 08:53:00,75.8,66.0,30.16,NNE,15,0.0,2.0,71,0.00,,,0.00,weatherlink.com 1.10,2013-05-26 12:53:00,
2013-05-26 09:08:00,76.6,65.0,30.16,NE,44,1.0,6.0,68,0.00,,,0.00,weatherlink.com 1.10,2013-05-26 13:08:00,
2013-05-26 09:23:00,77.8,66.0,30.17,NNE,26,0.0,-999.0,66,-99.99,,,0.00,weatherlink.com 1.10,2013-05-26 13:23:00,
2013-05-26 09:38:00,79.2,66.0,30.17,NNE,18,1.0,4.0,64,0.00,,,0.00,weatherlink.com 1.10,2013-05-26 13:38:00,
2013-05-26 09:54:00,79.5,65.0,30.16,NE,56,2.0,5.0,62,0.00,,,0.00,weatherlink.com 1.10,2013-05-26 13:54:00,
2013-05-26 10:09:00,79.7,65.0,30.17,NNE,27,2.0,5.0,62,0.00,,,0.00,weatherlink.com 1.10,2013-05-26 14:09:00,
2013-05-26 10:24:00,80.6,66.0,30.17,NE,47,0.0,4.0,62,0.00,,,0.00,weatherlink.com 1.10,2013-05-26 14:24:00,
2013-05-26 10:39:00,80.7,65.0,30.16,North,359,2.0,5.0,60,0.00,,,0.00,weatherlink.com 1.10,2013-05-26 14:39:00,
2013-05-26 10:54:00,82.1,65.0,30.17,SSE,163,1.0,7.0,57,0.00,,,0.00,weatherlink.com 1.10,2013-05-26 14:54:00,
2013-05-26 11:09:00,82.5,66.0,30.17,North,360,2.0,5.0,58,0.00,,,0.00,weatherlink.com 1.10,2013-05-26 15:09:00,
2013-05-26 11:24:00,83.7,66.0,30.17,NNW,346,2.0,4.0,55,0.00,,,0.00,weatherlink.com 1.10,2013-05-26 15:24:00,
2013-05-26 11:39:00,83.8,66.0,30.16,ENE,72,3.0,11.0,55,0.00,,,0.00,weatherlink.com 1.10,2013-05-26 15:39:00,
2013-05-26 11:54:00,84.2,66.0,30.16,ESE,113,1.0,6.0,54,0.00,,,0.00,weatherlink.com 1.10,2013-05-26 15:54:00,
2013-05-26 12:09:00,85.0,67.0,30.16,NNE,25,1.0,6.0,55,0.00,,,0.00,weatherlink.com 1.10,2013-05-26 16:09:00,
2013-05-26 12:24:00,85.8,68.0,30.16,ENE,71,2.0,3.0,55,0.00,,,0.00,weatherlink.com 1.10,2013-05-26 16:24:00,
2013-05-26 12:39:00,86.2,68.0,30.15,SSE,161,0.0,6.0,54,0.00,,,0.00,weatherlink.com 1.10,2013-05-26 16:39:00,
2013-05-26 12:54:00,85.9,67.0,30.15,North,356,1.0,5.0,53,0.00,,,0.00,weatherlink.com 1.10,2013-05-26 16:54:00,
2013-05-26 13:09:00,86.6,67.0,30.14,ENE,77,1.0,8.0,53,0.00,,,0.00,weatherlink.com 1.10,2013-05-26 17:09:00,
2013-05-26 13:24:00,88.0,66.0,30.14,East,97,3.0,7.0,49,0.00,,,0.00,weatherlink.com 1.10,2013-05-26 17:24:00,
2013-05-26 13:39:00,87.3,66.0,30.14,NW,308,3.0,7.0,50,0.00,,,0.00,weatherlink.com 1.10,2013-05-26 17:39:00,
2013-05-26 13:54:00,89.5,64.0,30.13,NNW,346,1.0,5.0,43,0.00,,,0.00,weatherlink.com 1.10,2013-05-26 17:54:00,
2013-05-26 14:09:00,90.1,63.0,30.12,NW,308,2.0,4.0,41,0.00,,,0.00,weatherlink.com 1.10,2013-05-26 18:09:00,
2013-05-26 14:24:00,90.2,64.0,30.12,North,1,2.0,7.0,42,0.00,,,0.00,weatherlink.com 1.10,2013-05-26 18:24:00,
2013-05-26 14:39:00,90.2,64.0,30.11,NE,35,0.0,8.0,42,0.00,,,0.00,weatherlink.com 1.10,2013-05-26 18:39:00,
2013-05-26 14:54:00,90.2,64.0,30.11,East,84,6.0,8.0,42,0.00,,,0.00,weatherlink.com 1.10,2013-05-26 18:54:00,
2013-05-26 15:09:00,88.0,66.0,30.11,East,79,0.0,8.0,48,0.00,,,0.00,weatherlink.com 1.10,2013-05-26 19:09:00,
2013-05-26 15:24:00,88.9,65.0,30.10,ENE,76,4.0,4.0,45,0.00,,,0.00,weatherlink.com 1.10,2013-05-26 19:24:00,
2013-05-26 15:39:00,88.7,63.0,30.10,SE,134,3.0,6.0,43,0.00,,,0.00,weatherlink.com 1.10,2013-05-26 19:39:00,
2013-05-26 15:54:00,88.6,64.0,30.09,NNW,347,0.0,5.0,44,0.00,,,0.00,weatherlink.com 1.10,2013-05-26 19:54:00,
2013-05-26 16:09:00,89.9,64.0,30.09,East,99,2.0,5.0,42,0.00,,,0.00,weatherlink.com 1.10,2013-05-26 20:09:00,
2013-05-26 16:24:00,88.5,63.0,30.09,ESE,107,0.0,8.0,43,0.00,,,0.00,weatherlink.com 1.10,2013-05-26 20:24:00,
2013-05-26 16:39:00,88.6,63.0,30.08,NE,53,1.0,5.0,43,0.00,,,0.00,weatherlink.com 1.10,2013-05-26 20:39:00,
2013-05-26 16:54:00,88.2,64.0,30.08,North,5,0.0,8.0,45,0.00,,,0.00,weatherlink.com 1.10,2013-05-26 20:54:00,
2013-05-26 17:09:00,89.1,66.0,30.08,NE,37,2.0,7.0,46,0.00,,,0.00,weatherlink.com 1.10,2013-05-26 21:09:00,
2013-05-26 17:24:00,87.1,65.0,30.08,SW,229,2.0,8.0,48,0.00,,,0.00,weatherlink.com 1.10,2013-05-26 21:24:00,
2013-05-26 17:39:00,86.7,65.0,30.07,NE,37,2.0,10.0,49,0.00,,,0.00,weatherlink.com 1.10,2013-05-26 21:39:00,
2013-05-26 17:54:00,85.6,64.0,30.07,SE,138,4.0,9.0,49,0.00,,,0.00,weatherlink.com 1.10,2013-05-26 21:54:00,
2013-05-26 18:09:00,85.2,64.0,30.07,NW,321,0.0,7.0,50,0.00,,,0.00,weatherlink.com 1.10,2013-05-26 22:09:00,
2013-05-26 18:24:00,85.1,64.0,30.07,ENE,60,2.0,9.0,50,0.00,,,0.00,weatherlink.com 1.10,2013-05-26 22:24:00,
2013-05-26 18:39:00,84.3,65.0,30.07,ESE,118,2.0,8.0,52,0.00,,,0.00,weatherlink.com 1.10,2013-05-26 22:39:00,
2013-05-26 18:55:00,83.8,64.0,30.07,NNW,339,2.0,6.0,52,0.00,,,0.00,weatherlink.com 1.10,2013-05-26 22:55:00,
2013-05-26 19:10:00,83.4,65.0,30.07,ENE,65,2.0,8.0,54,0.00,,,0.00,weatherlink.com 1.10,2013-05-26 23:10:00,
2013-05-26 19:25:00,82.6,65.0,30.08,East,95,1.0,10.0,56,0.00,,,0.00,weatherlink.com 1.10,2013-05-26 23:25:00,
2013-05-26 19:40:00,81.9,66.0,30.08,NE,49,4.0,8.0,58,0.00,,,0.00,weatherlink.com 1.10,2013-05-26 23:40:00,
2013-05-26 19:55:00,81.1,66.0,30.09,ESE,107,2.0,8.0,61,0.00,,,0.00,weatherlink.com 1.10,2013-05-26 23:55:00,
2013-05-26 20:10:00,80.4,66.0,30.09,ENE,58,2.0,12.0,61,0.00,,,0.00,weatherlink.com 1.10,2013-05-27 00:10:00,
2013-05-26 20:25:00,79.9,66.0,30.10,NNE,32,2.0,10.0,62,0.00,,,0.00,weatherlink.com 1.10,2013-05-27 00:25:00,
2013-05-26 20:40:00,79.5,66.0,30.10,East,83,1.0,4.0,63,0.00,,,0.00,weatherlink.com 1.10,2013-05-27 00:40:00,
2013-05-26 20:55:00,79.0,66.0,30.09,NNW,333,1.0,6.0,64,0.00,,,0.00,weatherlink.com 1.10,2013-05-27 00:55:00,
2013-05-26 21:10:00,78.8,66.0,30.10,ESE,103,1.0,7.0,64,0.00,,,0.00,weatherlink.com 1.10,2013-05-27 01:10:00,
2013-05-26 21:25:00,78.5,66.0,30.10,ESE,110,5.0,6.0,65,0.00,,,0.00,weatherlink.com 1.10,2013-05-27 01:25:00,
2013-05-26 21:40:00,78.1,66.0,30.10,North,359,1.0,6.0,66,0.00,,,0.00,weatherlink.com 1.10,2013-05-27 01:40:00,
2013-05-26 21:55:00,77.6,66.0,30.11,East,89,0.0,8.0,67,0.00,,,0.00,weatherlink.com 1.10,2013-05-27 01:55:00,
2013-05-26 22:10:00,77.2,66.0,30.12,SE,130,0.0,6.0,69,0.00,,,0.00,weatherlink.com 1.10,2013-05-27 02:10:00,
2013-05-26 22:25:00,76.7,66.0,30.13,East,94,5.0,9.0,70,0.00,,,0.00,weatherlink.com 1.10,2013-05-27 02:25:00,
2013-05-26 22:40:00,76.3,66.0,30.14,ENE,66,1.0,6.0,71,0.00,,,0.00,weatherlink.com 1.10,2013-05-27 02:40:00,
2013-05-26 22:55:00,75.8,66.0,30.14,ESE,107,2.0,9.0,72,0.00,,,0.00,weatherlink.com 1.10,2013-05-27 02:55:00,
2013-05-26 23:10:00,75.5,66.0,30.15,ENE,70,3.0,9.0,72,0.00,,,0.00,weatherlink.com 1.10,2013-05-27 03:10:00,
2013-05-26 23:25:00,75.1,66.0,30.15,ESE,111,2.0,6.0,72,0.00,,,0.00,weatherlink.com 1.10,2013-05-27 03:25:00,
2013-05-26 23:40:00,74.8,65.0,30.15,SE,131,0.0,7.0,72,0.00,,,0.00,weatherlink.com 1.10,2013-05-27 03:40:00,
2013-05-26 23:55:00,74.6,65.0,30.15,ESE,122,1.0,6.0,73,0.00,,,0.00,weatherlink.com 1.10,2013-05-27 03:55:00,